Location: Little Cypress
(30.1590°N, 93.7750°W)
Time: 18:16:14
(UTC-06:00)

Daily predictions for brighter satellites

Satellite Brightness Start Highest point End
(mag) Time Altitude Azimuth Time Altitude Azimuth Time Altitude Azimuth
Gbstr 26 Del rocket 3.0 18:27:14 10° SW 18:31:16 70° NW 18:35:00 10° NE
NOAA 12 4.4 18:31:25 10° SE 18:36:27 46° ENE 18:41:31 10° N
Cosmos 44 Rocket 4.4 18:33:56 10° NW 18:38:26 46° WSW 18:42:52 10° S
Cosmos 1238 Rocket 3.6 18:38:11 10° NE 18:40:15 17° E 18:42:21 10° SE
GPS 2-04 Rocket1 2.9 18:37:54 10° WSW 18:42:09 84° SSE 18:46:29 10° ENE
METEOR-M 4.2 18:42:08 10° SSE 18:47:21 59° ENE 18:52:36 10° N
Cosmos 1536 3.7 18:44:38 10° SSE 18:48:02 27° E 18:51:24 10° NNE
H-2A R/B 4.4 18:46:27 10° E 18:48:19 13° ENE 18:50:11 10° NE
GEOS 3 Rocket 3.7 18:43:58 10° NE 18:49:11 66° ESE 18:54:27 10° SSW
Cosmos 44 3.8 18:45:11 10° NW 18:49:26 56° WSW 18:53:36 10° SSE
Cosmos 1633 2.5 18:48:45 10° S 18:52:24 72° E 18:56:05 10° N
Cosmos 1023 Rocket 4.4 18:48:06 10° SSW 18:53:10 83° ESE 18:58:17 10° NNE
COSMOS 2428 4.2 18:50:20 10° NNE 18:53:38 16° ENE 18:55:37 13° E
Meteor 2-4 Rocket 4.5 18:52:36 10° NNE 18:57:12 27° ENE 19:01:43 10° SE
Okean 1 3.4 18:54:26 10° N 18:58:30 82° W 19:02:33 10° S
Cosmos 1812 4.0 18:54:58 10° NNW 18:58:40 44° W 19:02:19 10° SSW
Cosmos 1741 Rocket 4.1 18:55:17 10° S 19:00:21 54° ESE 19:05:26 10° NNE
Cosmos 1536 Rocket 3.6 18:58:15 10° N 19:02:44 87° E 19:07:12 10° S
Cosmos 2219 3.3 19:02:57 10° S 19:08:35 59° ESE 19:14:13 10° NNE
Cosmos 2360 Rocket 2.3 19:07:40 10° N 19:13:12 54° ENE 19:18:43 10° SE
Cosmos 2219 Rocket 4.1 19:12:23 10° NE 19:13:36 12° NE 19:13:36 12° NE
Cosmos 2227 Rocket 3.8 19:11:43 10° SE 19:13:25 15° ESE 19:13:25 15° ESE
Skynet4D Del rocket 4.5 19:11:00 10° SW 19:15:47 33° SSE 19:18:31 21° ESE
Meteor 1-11 Rocket 3.9 19:12:31 10° S 19:18:15 80° W 19:24:09 10° N
DNEPR-1 R/B 4.5 19:15:32 10° NW 19:19:35 49° WSW 19:23:53 10° S
BREEZE-M DEB (TANK) 4.1 19:16:41 10° WSW 19:21:46 37° NW 19:23:47 15° NNE
Resurs 01 Rocket 1.7 19:19:30 10° SSE 19:23:46 51° ENE 19:28:02 10° N
Cosmos 1461 4.1 19:20:23 10° NW 19:24:14 42° WSW 19:28:12 10° S
Cosmos 1300 Rocket 4.5 19:20:47 10° SSW 19:25:02 50° W 19:29:21 10° N
Abrixas rocket 3.4 19:24:48 10° WSW 19:27:58 39° NW 19:29:39 22° NNE
DELTA 2 R/B (1) 3.8 19:23:39 10° NW 19:29:10 54° NNE 19:31:31 32° E
ATLAS CENTAUR R/B 1.8 19:23:24 10° SSW 19:29:54 65° SE 19:30:46 44° ENE
ALOS 2.2 19:27:59 10° SSE 19:32:39 89° W 19:37:20 10° NNW
OAO 3 Copernicus 4.3 19:28:33 10° WNW 19:33:38 73° NNE 19:35:29 39° E
Cosmos 2327 Rocket 4.4 19:29:19 10° S 19:35:27 71° E 19:41:43 10° N
Spot 2 Rocket 3.3 19:33:36 10° SSE 19:38:37 73° ENE 19:43:40 10° N
Helios 1A 4.4 19:40:56 23° NNE 19:40:56 23° NNE 19:42:48 10° N
SL-24 R/B 4.5 19:36:24 10° SSE 19:41:27 68° E 19:47:03 10° N
Resurs 1-3 3.4 19:37:15 11° SSE 19:41:27 70° ENE 19:45:50 10° N
Delta R/B 4.0 19:29:19 10° W 19:42:23 65° S 19:43:33 45° ESE
Cosmos 2333 Rocket 4.0 19:44:28 10° NNE 19:46:14 16° NNE 19:46:14 16° NNE
Cosmos 2208 Rocket 4.0 19:43:37 10° N 19:49:00 61° ENE 19:50:31 44° SE
USA 229 DEB 4.3 19:47:39 10° NNW 19:54:11 37° NE 19:54:32 37° ENE
OTV 4 2.3 19:51:14 10° WSW 19:52:48 28° SW 19:52:48 28° SW
USA 229 4.3 19:47:45 10° NNW 19:54:17 36° NE 19:54:36 36° ENE
Cosmos 2074 Rocket 4.2 19:48:41 10° SSW 19:54:54 72° W 20:01:10 10° N
Helios 1B rocket 2.5 19:54:32 21° N 19:57:14 79° WNW 20:01:22 10° SSW
Cosmos 2184 Rocket 4.2 19:51:38 10° SSW 19:57:56 71° W 20:04:13 10° N
Tiangong 2 2.9 19:56:41 10° WNW 19:58:32 30° W 19:58:32 30° W
CZ-3C R/B 3.1 20:02:49 10° SW 20:03:44 12° SSW 20:03:44 12° SSW
Hubble Space Telescope 2.0 20:04:00 10° WSW 20:06:47 36° SW 20:06:47 36° SW
BREEZE-M DEB (TANK) 3.8 20:15:01 10° NNW 20:17:20 41° N 20:17:20 41° N
GPS 2-04 Rocket1 4.4 20:18:09 10° W 20:21:01 33° NW 20:21:01 33° NW
Cosmos 1025 Rocket 4.3 20:21:28 10° NNW 20:25:33 39° W 20:25:44 39° W
Cosmos 2154 Rocket 4.0 20:20:33 10° S 20:26:53 81° W 20:33:16 10° N
Atlas Centaur 2 3.7 20:21:59 10° SW 20:26:14 28° S 20:26:14 28° S
Cosmos 2285 Rocket 4.0 20:26:50 10° NNW 20:32:48 77° NW 20:32:48 77° NW
COSMOS 2428 3.2 20:32:40 10° NNW 20:37:45 56° W 20:37:45 56° W
Cosmos 2237 Rocket 4.4 20:36:56 10° N 20:37:45 14° N 20:37:45 14° N
Cosmos 2227 Rocket 4.1 20:53:17 10° SW 20:55:24 23° SW 20:55:24 23° SW
Cosmos 2219 Rocket 4.1 20:53:25 10° NNW 20:55:22 22° NNW 20:55:22 22° NNW
